C/2007 H2 ( Skiff )

Japanese version
Home page
Total 5,708 html files since Dec. 4, 1995
Updated on September 23, 2007

---------------------------------------------------------------------

* Profile

Discovery Date April 19, 2007
Magnitude 18.1 mag
Discoverer B. A. Skiff (Lowell Observatory LONEOS)

* Pictures

* Orbital Elements

T 2007 Feb. 17.0724 TT                                  MPC
q   1.410722             (2000.0)            P               Q
z  +0.019383       Peri.  319.3170      -0.8550105      -0.4092458
                   Node   203.7723      +0.2598534      -0.8696376
e   0.972656       Incl.   52.2087      -0.4488132      +0.2761309
From 100 observations 2007 Apr. 19-May 18.

* Magnitudes Graph

        m1 = 17.0 + 5 log d + 10.0 log r

---------------------------------------------------------------------

The orbital elements are published on M.P.E.C. 2007-K15.
The magnitudes graphs are made with Comet for Windows.

---------------------------------------------------------------------

Copyright(C) 1995-2007 Seiichi Yoshida (comet@aerith.net). All rights reserved.